world map with TIF marked

TIF - Airport

This information may not be accurate or current and is not valid for navigation or flight planning. No warranty of fitness for any purpose is made or implied.

flag of Saudi Arabia

Donate via PayPal

Additional information is available on the NEW Great Circle Mapper

Location
City:  Taif, Saudi Arabia
ICAO / IATA:OETF / TIF

Details
Type:Airport (Aerodrome, Airfield)
Use:Public/Civil, Military
Latitude:21°29'00"N (21.483418)
Longitude:40°32'40"E (40.544334)
Datum:WGS 1984
Elevation:4848 ft (1478 m)
Runways:2
Longest:12254 × 148 ft (3735 × 45 m)

Time
Timezone:UTC+3 (DST+5)
Local Time:

Weather
METAR:OETF  221300Z 24010KT 9999 SCT030 24/09 Q1018 NOSIG
TAF:OETF  (expired)

Related Locations
Nearby:
Farthest:NTTX: 12395 mi / 19947 km
Mururoa Atoll, PF

Find:

   beyond  
but within

Other Information
Maps:
Links:
Sources:

  


 


Great Circle Mapper   Great Circle Mapper
Great Circle Mapper FAQ   Great Circle Mapper FAQ
  Karl's Home Page
KLSē   KLSē Home
   GC on Facebook
Airlines of the World   Airlines of the World
Donate via PayPal


Copyright © 2004-2014, Karl L. Swartz. All rights reserved.
All trademarks mentioned herein belong to their respective owners.

Please see credits for attribution and copyright information.

Karl Swartz <karl@kls2.com>
  Powered by FreeBSD
Valid HTML 4.01!
Labeled with ICRA
hCard Microformat
Geo Microformat